[[{"header":{"parameterUnit":"m.s-1","parameterCategory":1,"la1":30.2991,"la2":30.254,"lo1":-89.0895,"lo2":-89.0444,"dy":0.0017,"dx":0.0017,"nx":28,"ny":28,"refTime":"2025-12-20T03:00:00:Z","depth":0,"parameterNumber":2,"parameterNumberName":"U-component_of_WINDS"},"data":[0,0,0,0,0,0,0,0,0,0,0,0,0,0,0,0,0,0,0,0,0,0,0,0,0,0,0,0,0,0,0,0,0,0,0,0,0,0,0,0,0,0,0,0,0,0,0,0,0,0,0,0,0,0,0,0,0,0,-3.3761,-3.3761,0,-3.3766,-3.3766,-3.3766,-3.3639,-3.3636,-3.3632,-3.3629,-3.3634,-3.3637,-3.3641,0,0,0,0,0,0,0,0,0,0,0,0,0,-3.3643,-3.3646,-3.3761,-3.3761,-3.3761,-3.3766,-3.3766,-3.3766,-3.364,-3.3636,-3.3632,-3.3628,-3.3633,-3.3637,-3.3641,0,0,0,0,0,0,0,0,0,0,0,0,0,-3.3676,-3.3646,-3.3761,-3.3699,-3.3693,-3.3766,-3.3766,-3.3766,-3.3641,-3.3636,-3.3631,-3.3626,-3.3632,-3.3637,-3.3642,-3.3774,0,0,-3.3657,-3.3659,0,0,0,0,0,0,0,0,-3.3674,-3.368,-3.3708,-3.3703,-3.3697,-3.3697,-3.3726,-3.3769,-3.3642,-3.3661,-3.3629,-3.3623,-3.3659,-3.3662,-3.3674,-3.3774,-3.3774,-3.3657,-3.366,-3.3662,-3.3664,0,0,0,0,0,0,0,-3.3672,-3.3679,-3.3763,-3.3709,-3.3702,-3.3671,-3.367,-3.3733,-3.3688,-3.3659,-3.365,-3.3652,-3.3655,-3.3669,-3.3673,-3.3774,-3.3657,-3.3661,-3.3664,-3.3666,-3.3984,-3.399,0,0,0,0,0,0,-3.3678,-3.3678,-3.3763,-3.3763,-3.3673,-3.3677,-3.3676,-3.3702,-3.3687,-3.368,-3.3656,-3.3646,-3.3663,-3.3667,-3.3673,-3.3827,-3.3662,-3.3667,-3.367,-3.3979,-3.3986,-3.3992,0,0,0,0,0,0,-3.3676,-3.3687,-3.3763,-3.3718,-3.3725,-3.3684,-3.3715,-3.3705,-3.3719,-3.3685,-3.3677,-3.3679,-3.3659,-3.3666,-3.375,-3.3825,-3.3669,-3.3673,-3.3973,-3.3981,-3.3989,-3.4137,0,0,0,0,0,0,-3.3673,-3.3687,-3.3737,-3.372,-3.3728,-3.3841,-3.372,-3.3709,-3.3728,-3.3714,-3.3704,-3.3698,-3.3656,-3.3743,-3.3755,-3.3829,-3.3677,-3.3966,-3.3976,-3.3986,-3.4125,-3.4149,-3.417,0,0,0,0,0,-3.3669,-3.3778,-3.374,-3.3751,-3.379,-3.3845,-3.385,-3.3799,-3.3734,-3.3784,-3.3763,-3.3698,-3.3815,-3.3753,-3.3765,-3.3842,-3.3961,-3.3973,-3.3985,-3.4115,-3.4145,-3.417,0,0,0,0,0,0,-3.3804,-3.3775,-3.3732,-3.3839,-3.3846,-3.3824,-3.3885,-3.3832,-3.3857,-3.3843,-3.3779,-3.3778,-3.3873,-3.3866,-3.3797,-3.397,-3.3876,-3.3892,-3.3971,-3.3999,-3.4021,-3.4021,-3.3681,0,0,0,0,0,-3.3847,-3.3894,-3.3865,-3.3962,-3.3968,-3.3927,-3.3948,-3.3909,-3.3913,-3.3915,-3.39,-3.3907,-3.3945,-3.3971,-3.4004,-3.4124,-3.412,-3.4183,-3.4205,-3.4224,-3.4238,-3.4301,-3.4328,-3.4032,-3.4032,-3.4032,0,0,-3.3934,-3.3924,-3.3958,-3.3989,-3.399,-3.404,-3.3929,-3.3987,-3.4024,-3.3924,-3.4003,-3.3992,-3.3995,-3.4098,-3.4142,-3.4095,-3.4319,-3.4239,-3.4254,-3.4258,-3.4316,-3.4344,-3.4369,-3.4041,-3.4039,-3.4038,0,0,-3.412,-3.4117,-3.4197,-3.42,-3.4203,-3.4174,-3.4194,-3.418,-3.4169,-3.4248,-3.4174,-3.4216,-3.4283,-3.4289,-3.43,-3.4489,-3.4431,-3.4502,-3.4619,-3.4681,-3.4704,-3.4725,-3.4793,-3.4818,-3.4516,-3.4516,-3.4517,0,-3.4228,-3.4301,-3.4246,-3.4309,-3.4325,-3.4237,-3.4318,-3.4324,-3.4337,-3.4351,-3.4297,-3.438,-3.4376,-3.4478,-3.4525,-3.4537,-3.4557,-3.4503,-3.4706,-3.4725,-3.4744,-3.4808,-3.4833,-3.4525,-3.4524,-3.4523,-3.4522,0,-3.4435,-3.4487,-3.4552,-3.4568,-3.4591,-3.4663,-3.4619,-3.4649,-3.4608,-3.4586,-3.4667,-3.4659,-3.4689,-3.471,-3.467,-3.4808,-3.4778,-3.4717,-3.4621,-3.4782,-3.4841,-3.4865,-3.4537,-3.4534,-3.4532,-3.453,0,0,-3.4705,-3.469,-3.4715,-3.4721,-3.4717,-3.4756,-3.4825,-3.4854,-3.4882,-3.4895,-3.495,-3.501,-3.4952,-3.4966,-3.4926,-3.498,-3.5131,-3.4911,-3.491,-3.4953,-3.5283,-3.533,-3.5359,-3.5092,-3.5097,-3.51,-3.5283,0,-3.4886,-3.5002,-3.4954,-3.5074,-3.5122,-3.5039,-3.5099,-3.5103,-3.5085,-3.5122,-3.51,-3.5144,-3.5065,-3.5072,-3.5123,-3.5102,-3.5197,-3.5088,-3.5144,-3.5147,-3.5146,-3.539,-3.5439,-3.5612,-3.5305,-3.5309,-3.5312,0,-3.5112,-3.5134,-3.526,-3.5248,-3.5266,-3.5321,-3.5345,-3.5382,-3.5385,-3.5368,-3.5383,-3.5331,-3.5398,-3.5303,-3.5394,-3.5322,-3.5341,-3.5335,-3.534,-3.5344,-3.5239,-3.54,-3.5666,-3.5692,-3.5348,-3.5345,-3.5342,0,-3.5297,-3.5358,-3.5441,-3.5449,-3.5438,-3.5478,-3.5475,-3.5474,-3.5495,-3.5516,-3.5529,-3.5558,-3.5574,-3.5597,-3.5554,-3.5489,-3.5652,-3.5553,-3.5639,-3.564,-3.5677,-3.5675,-3.595,-3.569,-3.5689,-3.5689,-3.5688,0,-3.5504,-3.5584,-3.5524,-3.5576,-3.5663,-3.5607,-3.5696,-3.5683,-3.5683,-3.5731,-3.5661,-3.5707,-3.5647,-3.5688,-3.5655,-3.5735,-3.5743,-3.5731,-3.5721,-3.5737,-3.5739,-3.5749,-3.5736,-3.5696,-3.5694,-3.5693,-3.5692,0,-3.5725,-3.5689,-3.5774,-3.5757,-3.5754,-3.582,-3.5805,-3.5851,-3.5828,-3.5889,-3.59,-3.5863,-3.5907,-3.5867,-3.5908,-3.5886,-3.5994,-3.5967,-3.5993,-3.5986,-3.6074,-3.6066,-3.6365,-3.6401,-3.6118,-3.6121,-3.6123,0,-3.586,-3.592,-3.5909,-3.5936,-3.5938,-3.5982,-3.6004,-3.5951,-3.5977,-3.5986,-3.6032,-3.607,-3.6097,-3.6172,-3.6149,-3.6181,-3.6154,-3.6256,-3.6158,-3.6173,-3.6156,-3.6153,-3.6159,-3.6276,-3.628,-3.6283,-3.6285,0,-3.6103,-3.6082,-3.6115,-3.6144,-3.6172,-3.6192,-3.6206,-3.6232,-3.6178,-3.621,-3.6254,-3.6276,-3.6319,-3.6358,-3.6383,-3.638,-3.6324,-3.6316,-3.6337,-3.6355,-3.6368,-3.6362,-3.6048,-3.6309,-3.6307,-3.6305,-3.6304,-3.6303,-3.6285,-3.6334,-3.6335,-3.6375,-3.6381,-3.6396,-3.6439,-3.6421,-3.6457,-3.6488,-3.6455,-3.651,-3.6512,-3.6539,-3.6543,-3.6585,-3.6542,-3.6573,-3.6581,-3.659,-3.6603,-3.6361,-3.6589,-3.6588,-3.6588,-3.6587,-3.6587,0,-3.6524,-3.652,-3.6558,-3.6581,-3.6613,-3.6557,-3.657,-3.6601,-3.665,-3.6657,-3.6686,-3.6737,-3.6775,-3.6755,-3.6788,-3.6825,-3.6801,-3.6836,-3.6832,-3.6833,-3.6639,-3.6617,-3.6855,-3.6855,-3.6855,-3.6855,-3.6855,-3.6855,-3.6652,-3.6733,-3.6713,-3.6796,-3.6792,-3.6845,-3.6857,-3.6871,-3.6876,-3.6937,-3.6968,-3.6955,-3.6952,-3.6983,-3.7016,-3.7009,-3.7024,-3.7069,-3.7053,-3.6873,-3.6846,-3.6821,-3.68,-3.7073,-3.7073,-3.7243,-3.7245,-3.7246]},{"header":{"parameterUnit":"m.s-1","parameterCategory":1,"la1":30.2991,"la2":30.254,"lo1":-89.0895,"lo2":-89.0444,"dy":0.0017,"dx":0.0017,"nx":28,"ny":28,"refTime":"2025-12-20T03:00:00:Z","depth":0,"parameterNumber":3,"parameterNumberName":"V-component_of_WINDS"},"data":[0,0,0,0,0,0,0,0,0,0,0,0,0,0,0,0,0,0,0,0,0,0,0,0,0,0,0,0,0,0,0,0,0,0,0,0,0,0,0,0,0,0,0,0,0,0,0,0,0,0,0,0,0,0,0,0,0,0,-0.8504,-0.8504,0,-0.8556,-0.8557,-0.8558,-0.8582,-0.8582,-0.8582,-0.8582,-0.8636,-0.8638,-0.8639,0,0,0,0,0,0,0,0,0,0,0,0,0,-0.8423,-0.8425,-0.8504,-0.8504,-0.8505,-0.8556,-0.8557,-0.8558,-0.8582,-0.8582,-0.8582,-0.8582,-0.8636,-0.8638,-0.8639,0,0,0,0,0,0,0,0,0,0,0,0,0,-0.8465,-0.8425,-0.8503,-0.8523,-0.8526,-0.8556,-0.8557,-0.8558,-0.8582,-0.8582,-0.8582,-0.8582,-0.8635,-0.8637,-0.864,-0.8654,0,0,-0.8646,-0.8647,0,0,0,0,0,0,0,0,-0.8463,-0.8468,-0.852,-0.8522,-0.8525,-0.8563,-0.8549,-0.859,-0.8582,-0.8561,-0.8582,-0.8582,-0.8612,-0.8616,-0.8626,-0.8657,-0.8659,-0.8647,-0.8648,-0.8649,-0.865,0,0,0,0,0,0,0,-0.846,-0.8466,-0.8524,-0.852,-0.8523,-0.8529,-0.8535,-0.8557,-0.8586,-0.8563,-0.8565,-0.857,-0.8613,-0.8624,-0.8628,-0.866,-0.8647,-0.8649,-0.865,-0.8651,-0.8705,-0.8705,0,0,0,0,0,0,-0.8454,-0.8464,-0.8523,-0.8526,-0.8493,-0.8531,-0.8537,-0.855,-0.8586,-0.8591,-0.857,-0.8571,-0.862,-0.8625,-0.863,-0.8649,-0.8649,-0.8651,-0.8652,-0.8705,-0.8705,-0.8705,0,0,0,0,0,0,-0.8452,-0.8459,-0.8521,-0.8495,-0.8504,-0.8532,-0.8547,-0.8552,-0.8562,-0.8592,-0.8597,-0.8576,-0.862,-0.8626,-0.8648,-0.8651,-0.8652,-0.8654,-0.8704,-0.8705,-0.8705,-0.8687,0,0,0,0,0,0,-0.845,-0.8458,-0.8464,-0.8495,-0.8505,-0.8538,-0.8547,-0.8553,-0.8566,-0.8568,-0.8598,-0.8603,-0.8621,-0.8644,-0.865,-0.8654,-0.8656,-0.8704,-0.8704,-0.8705,-0.8687,-0.8686,-0.8686,0,0,0,0,0,-0.8447,-0.8458,-0.8465,-0.8472,-0.8513,-0.8538,-0.8544,-0.8564,-0.8566,-0.8572,-0.8591,-0.8602,-0.8649,-0.8646,-0.8653,-0.8657,-0.8704,-0.8704,-0.8705,-0.8688,-0.8687,-0.8686,0,0,0,0,0,0,-0.8427,-0.8462,-0.847,-0.8491,-0.8512,-0.8542,-0.8551,-0.8562,-0.8582,-0.8583,-0.8606,-0.8613,-0.8632,-0.8647,-0.8643,-0.8673,-0.8678,-0.8679,-0.8663,-0.8662,-0.8661,-0.8657,-0.8658,0,0,0,0,0,-0.8425,-0.8442,-0.8472,-0.8488,-0.8497,-0.8522,-0.8534,-0.8547,-0.8569,-0.8578,-0.8598,-0.8619,-0.8639,-0.8651,-0.8671,-0.8689,-0.8696,-0.8696,-0.8695,-0.8694,-0.8695,-0.8705,-0.8705,-0.8705,-0.8705,-0.8705,0,0,-0.8421,-0.8442,-0.8452,-0.8484,-0.8502,-0.8519,-0.8529,-0.8548,-0.8561,-0.8581,-0.8602,-0.8618,-0.8642,-0.8662,-0.8672,-0.8675,-0.8696,-0.8694,-0.8693,-0.8695,-0.8706,-0.8705,-0.8705,-0.8706,-0.8706,-0.8706,0,0,-0.8422,-0.8441,-0.8455,-0.8472,-0.8498,-0.8514,-0.8517,-0.8547,-0.8557,-0.8579,-0.8594,-0.861,-0.8643,-0.866,-0.8673,-0.8679,-0.869,-0.8685,-0.8681,-0.869,-0.869,-0.869,-0.8692,-0.8693,-0.8686,-0.8686,-0.8686,0,-0.8415,-0.8441,-0.8462,-0.8479,-0.8492,-0.851,-0.8525,-0.8541,-0.8571,-0.858,-0.8583,-0.8624,-0.8642,-0.8666,-0.8667,-0.8677,-0.8682,-0.8682,-0.8688,-0.8689,-0.8689,-0.8691,-0.8692,-0.8685,-0.8685,-0.8685,-0.8685,0,-0.843,-0.8448,-0.8457,-0.8485,-0.85,-0.8516,-0.8538,-0.855,-0.8562,-0.8577,-0.8598,-0.8621,-0.8644,-0.8651,-0.8663,-0.8676,-0.8677,-0.8684,-0.8689,-0.8688,-0.869,-0.8691,-0.8684,-0.8684,-0.8684,-0.8685,0,0,-0.8422,-0.846,-0.8463,-0.8476,-0.8505,-0.8519,-0.8535,-0.8558,-0.8568,-0.8588,-0.8602,-0.8629,-0.8635,-0.865,-0.8664,-0.8672,-0.8675,-0.8678,-0.8679,-0.8676,-0.869,-0.8685,-0.8685,-0.8682,-0.8682,-0.8682,-0.8688,0,-0.8427,-0.8457,-0.8475,-0.8497,-0.8514,-0.8531,-0.8545,-0.8564,-0.8579,-0.8595,-0.8611,-0.863,-0.8637,-0.8646,-0.8655,-0.8672,-0.8678,-0.8672,-0.8695,-0.8696,-0.8688,-0.8686,-0.8681,-0.8685,-0.8689,-0.8689,-0.8689,0,-0.8438,-0.8457,-0.8481,-0.8507,-0.8515,-0.8527,-0.8549,-0.8564,-0.8586,-0.8596,-0.8611,-0.8625,-0.8642,-0.8645,-0.8669,-0.8665,-0.8675,-0.8685,-0.8686,-0.8689,-0.8692,-0.8689,-0.8687,-0.8687,-0.8691,-0.8691,-0.8691,0,-0.8429,-0.8461,-0.8479,-0.8489,-0.852,-0.8528,-0.8542,-0.8563,-0.8576,-0.8595,-0.8603,-0.8624,-0.8635,-0.8651,-0.8669,-0.867,-0.8691,-0.8696,-0.87,-0.8699,-0.8704,-0.8703,-0.8703,-0.871,-0.871,-0.871,-0.871,0,-0.8433,-0.8447,-0.8475,-0.8486,-0.8502,-0.8522,-0.8537,-0.8552,-0.857,-0.8584,-0.86,-0.8613,-0.8637,-0.8653,-0.8667,-0.8684,-0.869,-0.8698,-0.8702,-0.8697,-0.8695,-0.8704,-0.8704,-0.871,-0.871,-0.871,-0.871,0,-0.8426,-0.8445,-0.8466,-0.8493,-0.85,-0.8511,-0.8534,-0.8545,-0.856,-0.8578,-0.8583,-0.8607,-0.8626,-0.8646,-0.8672,-0.8682,-0.8698,-0.8704,-0.8691,-0.8693,-0.8695,-0.8694,-0.87,-0.8702,-0.8708,-0.8708,-0.8708,0,-0.8427,-0.8438,-0.8466,-0.8477,-0.8489,-0.8506,-0.8518,-0.8538,-0.8551,-0.8575,-0.8583,-0.8603,-0.8621,-0.865,-0.867,-0.869,-0.8696,-0.8696,-0.8699,-0.8693,-0.8695,-0.8694,-0.8695,-0.8695,-0.8695,-0.8695,-0.8695,0,-0.8428,-0.8436,-0.8454,-0.8474,-0.8488,-0.8505,-0.8522,-0.853,-0.8553,-0.8566,-0.8585,-0.8599,-0.8625,-0.8644,-0.8666,-0.868,-0.8691,-0.8694,-0.8696,-0.869,-0.8682,-0.8686,-0.8688,-0.8694,-0.8694,-0.8694,-0.8694,-0.8694,-0.8425,-0.8435,-0.8456,-0.8474,-0.8489,-0.8505,-0.8516,-0.8533,-0.8549,-0.8572,-0.8582,-0.8602,-0.8622,-0.8653,-0.8666,-0.8681,-0.8684,-0.8687,-0.8688,-0.8688,-0.8686,-0.868,-0.8685,-0.8685,-0.8685,-0.8685,-0.8685,0,-0.8426,-0.844,-0.8456,-0.848,-0.8494,-0.8503,-0.8522,-0.8534,-0.855,-0.8568,-0.8584,-0.8606,-0.8625,-0.8646,-0.8666,-0.8674,-0.8679,-0.8678,-0.8678,-0.8681,-0.8683,-0.8679,-0.8673,-0.8673,-0.8673,-0.8673,-0.8673,-0.8673,-0.8428,-0.8445,-0.8456,-0.8481,-0.8495,-0.8514,-0.8524,-0.8538,-0.8552,-0.8576,-0.8591,-0.8605,-0.8623,-0.8645,-0.8662,-0.8668,-0.8674,-0.8672,-0.8679,-0.868,-0.8681,-0.8682,-0.8678,-0.8673,-0.8673,-0.8676,-0.8676,-0.8676]}]]